Location: *
(46.1833°N, 22.7667°E)
Time: 06:18:17
(UTC+00:00)

Cosmos 2297 Rocket - Pass Details

Date: 17 September 2019
Orbit: 841 x 842 km, 71.0° (Epoch: 20 October)

Event Time Altitude Azimuth Distance (km) Brightness Sun altitude
Rises 17:45:15 0° 165° (SSE) 3,384 5.0 -12.4°
Reaches altitude 10° 17:48:08 10° 152° (SSE) 2,454 4.2 -12.9°
Maximum altitude 17:52:27 23° 101° (ESE) 1,721 3.2 -13.6°
Drops below altitude 10° 17:56:46 10° 51° (NE) 2,467 4.3 -14.3°
Sets 17:59:40 0° 38° (NE) 3,407 5.2 -14.8°
